This demonstration page uses our WeatherBlox Daily Observations layout. Learn more.

Left ArrowRight Arrow

Hourly Observations for March 1, 2023

Temp ( °F °C ) Dew Point ( °F °C ) Humidity (%) Winds ( mph kmh ) Pressure ( in mb ) Visibility ( mi km ) Precip ( " mm )
12:59 am 00:59 Partly Cloudy 48 8.9 43 6.1 83 83 E 14 22 30.06 1018 10 16 0.00 0.00
1:59 am 01:59 Partly Cloudy 48 8.9 41 5 76 76 E 12 19 30.07 1018 10 16 0.00 0.00
2:59 am 02:59 Partly Cloudy 48 8.9 41 5 76 76 E 10 17 30.06 1018 10 16 0.00 0.00
3:59 am 03:59 Partly Cloudy 47 8.3 40 4.4 76 76 E 7 11 30.08 1019 10 16 0.00 0.00
4:59 am 04:59 Partly Cloudy 48 8.9 41 5 76 76 E 9 15 30.08 1019 10 16 0.00 0.00
5:59 am 05:59 Partly Cloudy 44 6.7 41 5 89 89 Calm 30.12 1020 10 16 0.00 0.00
6:59 am 06:59 Mostly Cloudy 47 8.3 43 6.1 86 86 E 6 9 30.13 1020 10 16 0.00 0.00
7:59 am 07:59 Mostly Cloudy 50 10 44 6.7 80 80 E 8 13 30.14 1021 10 16 0.00 0.00
8:59 am 08:59 Mostly Cloudy 52 11.1 45 7.2 77 77 E 10 17 30.14 1021 10 16 0.00 0.00
9:59 am 09:59 Partly Cloudy 54 12.2 45 7.2 71 71 ENE 10 17 30.15 1021 10 16 0.00 0.00
10:59 am 10:59 Mostly Cloudy 54 12.2 46 7.8 74 74 ENE 13 20 30.13 1020 10 16 0.00 0.00
11:59 am 11:59 Cloudy 53 11.7 46 7.8 77 77 ENE 12 19 30.12 1020 10 16 0.00 0.00
12:59 pm 12:59 Mostly Cloudy 54 12.2 46 7.8 74 74 E 14 22 30.07 1018 10 16 0.00 0.00
1:59 pm 13:59 Cloudy 54 12.2 46 7.8 74 74 E 13 20 30.05 1018 10 16 0.00 0.00
2:59 pm 14:59 Mostly Cloudy 54 12.2 46 7.8 74 74 NE 12 19 30.02 1017 10 16 0.00 0.00
3:59 pm 15:59 Mostly Cloudy 53 11.7 46 7.8 77 77 ENE 8 13 30.00 1016 10 16 0.00 0.00
4:59 pm 16:59 Mostly Cloudy 52 11.1 46 7.8 80 80 ENE 7 11 29.99 1016 10 16 0.00 0.00
5:59 pm 17:59 Mostly Cloudy 51 10.6 47 8.3 86 86 ENE 5 7 29.98 1015 10 16 0.00 0.00
6:59 pm 18:59 Mostly Cloudy 50 10 47 8.3 89 89 Calm 29.97 1015 10 16 0.00 0.00
7:59 pm 19:59 Mostly Cloudy 48 8.9 47 8.3 96 96 SE 3 6 29.95 1014 10 16 0.00 0.00
8:59 pm 20:59 Mostly Cloudy 48 8.9 47 8.3 96 96 Calm 29.93 1014 9 14 0.00 0.00
9:59 pm 21:59 Mostly Cloudy 48 8.9 47 8.3 96 96 Calm 29.91 1013 9 14 0.00 0.00
10:59 pm 22:59 Mostly Cloudy 47 8.3 46 7.8 97 97 Calm 29.90 1013 9 14 0.00 0.00
11:59 pm 23:59 Mostly Cloudy 47 8.3 46 7.8 97 97 ESE 3 6 29.85 1011 8 13 0.00 0.00

Powered by Vaisala Xweather